Theta_e
354 356 357 358 358 358 356 357 357 356 359 353 352 354 354 357 356 355 356 354 352 351 351 351 350 350 352 352 352 353 351 354 354 351 351 355 354 354 356 353 355 354 349 345 345 346 346 345 346 347 348 348 349 349 349 347 347 347 346 345 347 347 347 347 346 345 344 343 343 346 346 346 345 343 342 344 346 346 347 347 345 344 342 340 342 343 344 343 343 342 343 345 343 344 343 341 340
355 356 358 358 357 358 355 356 357 354 356 349 351 356 355 358 356 355 354 351 351 350 350 350 351 351 351 353 353 353 353 353 355 356 354 355 354 355 354 353 357 355 347 344 346 346 345 346 348 348 348 348 349 349 349 349 349 347 345 345 346 346 346 346 345 344 344 344 343 345 346 346 345 343 342 342 343 345 346 347 347 345 343 340 340 342 343 342 342 341 342 343 343 344 342 341 341
356 356 357 358 356 358 355 355 355 349 352 350 351 357 356 358 356 355 350 348 350 349 349 349 352 352 351 352 354 355 355 353 354 355 354 354 354 354 353 354 357 355 349 347 347 346 346 347 348 348 349 350 349 349 348 349 350 347 346 345 345 345 345 344 344 344 344 344 344 345 346 346 346 345 343 342 342 343 344 345 347 347 345 343 341 341 341 342 342 342 342 343 343 343 342 342 342
356 357 357 358 356 356 356 357 357 350 350 352 353 357 357 356 352 351 349 349 350 349 350 349 352 353 353 352 354 355 354 353 353 354 354 355 354 353 353 354 356 355 352 350 349 346 346 347 347 349 350 350 349 349 349 349 349 348 347 346 346 345 344 344 344 344 344 344 343 344 346 347 347 347 345 344 342 341 342 343 344 346 346 345 343 341 341 341 341 341 342 343 343 343 341 342 343
356 356 356 357 356 357 356 358 360 354 351 353 355 357 356 352 350 350 349 350 350 350 349 349 350 352 354 353 354 355 353 354 354 354 354 354 354 353 353 354 355 354 353 352 350 346 346 347 347 348 349 349 349 349 349 349 349 349 348 347 347 346 345 344 345 344 344 343 342 343 346 347 347 347 346 344 342 342 343 343 342 343 344 344 343 343 342 341 341 341 342 342 342 343 342 341 342
356 356 355 356 356 356 355 354 355 354 354 356 356 358 355 351 351 347 349 351 348 349 349 350 350 351 353 353 355 355 355 355 355 354 354 354 354 354 354 354 353 353 352 352 351 346 345 346 346 347 348 348 349 349 349 349 349 349 349 347 347 346 344 344 344 344 343 343 342 342 344 346 346 347 346 345 343 343 345 345 343 342 342 342 343 343 342 342 342 342 342 343 343 342 343 341 341
356 355 355 356 355 355 356 355 356 355 353 357 358 358 355 355 357 348 349 349 348 349 348 350 351 352 353 353 354 355 355 355 354 353 353 354 354 353 353 354 352 351 351 351 350 347 345 346 346 346 347 348 348 349 349 348 348 348 348 348 347 346 345 344 343 343 343 343 342 341 343 344 345 346 345 345 344 343 344 344 343 343 343 342 343 343 342 342 343 343 342 343 342 342 343 343 342
357 357 356 356 356 356 356 356 360 358 353 356 358 357 356 357 358 353 348 348 349 349 347 350 351 353 354 355 355 355 355 354 353 353 353 353 353 351 353 353 350 352 353 351 350 348 345 345 346 346 347 347 348 348 347 347 347 347 347 348 347 346 346 345 344 344 344 343 342 342 343 343 343 345 345 345 345 344 343 343 343 344 344 343 344 344 344 343 343 342 342 342 341 341 342 342 342
357 357 356 356 356 354 353 354 356 357 355 356 356 357 355 356 356 354 350 348 347 348 348 350 351 353 353 355 356 355 355 354 353 352 353 352 351 351 352 353 351 353 354 351 349 347 345 345 345 346 347 346 347 347 346 346 346 346 346 346 346 345 345 345 346 346 345 344 343 342 343 343 342 342 343 344 345 345 345 344 344 345 345 345 345 345 345 345 343 342 342 341 341 341 341 341 341
356 356 356 354 355 352 347 350 352 353 356 356 356 357 356 356 355 354 352 350 347 347 347 348 351 354 353 356 356 356 355 353 353 352 351 350 351 352 352 352 353 354 353 351 349 346 343 344 345 345 346 345 344 345 345 344 344 345 345 345 345 345 344 345 346 346 346 345 344 343 342 343 342 340 341 343 344 345 345 345 344 344 344 345 345 345 345 344 344 343 342 341 341 340 341 340 339
354 356 357 350 351 349 344 347 352 353 356 354 354 354 354 356 354 353 353 350 348 346 347 348 351 353 353 356 356 355 355 354 353 351 350 350 351 352 351 352 353 353 351 350 350 345 341 342 345 345 344 344 344 344 344 343 343 344 345 346 346 346 345 344 345 345 345 345 344 342 341 342 343 341 341 342 344 345 345 345 345 344 344 345 345 344 344 344 344 342 341 341 341 341 341 340 340
351 351 355 347 349 352 348 348 352 353 354 353 354 353 353 356 356 355 353 350 349 349 348 349 350 352 352 354 356 356 355 354 353 351 351 352 352 353 352 351 352 353 349 349 350 346 341 342 343 343 344 343 344 344 343 342 342 343 344 345 346 346 345 345 345 344 344 345 344 343 340 341 342 342 341 340 344 346 345 344 345 345 344 345 344 344 343 342 340 340 340 340 340 341 341 340 340
345 344 347 345 351 355 350 348 352 353 352 352 353 353 352 356 357 355 354 351 350 351 349 350 351 352 353 354 356 356 356 355 353 352 352 353 353 352 352 350 350 352 351 348 348 346 343 343 343 344 343 342 343 344 342 342 342 343 345 345 345 346 345 346 346 343 343 343 344 343 341 341 342 343 342 340 343 345 345 344 344 345 344 344 343 343 342 340 338 337 338 339 341 341 340 340 340
342 342 343 346 351 352 349 348 350 349 347 351 353 353 353 356 355 354 356 353 350 351 350 350 350 352 354 356 356 356 356 355 353 353 353 352 352 351 350 350 350 352 353 350 346 345 345 345 344 344 343 344 344 345 343 343 342 344 345 345 344 345 345 345 346 345 344 344 344 343 341 341 343 345 342 338 341 343 344 344 343 344 343 342 341 341 341 340 338 336 337 339 340 340 340 340 339
338 341 342 345 347 346 348 348 348 346 346 350 351 351 356 356 354 355 356 353 351 350 351 350 348 351 354 356 357 356 355 355 354 353 353 352 352 351 350 350 351 353 354 352 348 346 346 346 346 344 346 346 345 345 345 343 343 344 345 346 345 345 345 345 346 345 345 345 344 343 342 342 343 346 344 339 341 342 344 344 343 343 342 342 341 341 341 341 340 337 337 339 338 339 339 339 340
337 339 342 342 339 341 346 348 349 346 347 349 349 352 356 353 353 357 356 352 352 351 350 352 352 353 352 354 356 355 355 354 354 353 353 352 351 351 351 351 353 354 354 353 352 350 349 348 347 346 345 345 345 345 346 344 343 344 345 346 346 346 345 345 346 345 346 345 344 345 343 342 343 346 346 342 342 342 344 343 342 343 341 342 340 340 341 341 341 338 337 339 338 337 337 337 337
336 338 340 337 335 339 343 349 349 346 348 348 348 351 354 354 352 354 353 349 351 351 349 351 352 351 350 352 353 355 355 354 354 353 352 352 351 350 351 351 353 354 354 353 353 353 352 350 348 347 345 344 346 347 346 345 344 345 345 345 346 346 345 345 345 345 345 345 346 344 340 343 343 344 345 343 343 342 344 344 343 342 341 341 340 340 341 340 340 339 338 338 336 334 334 333 331
337 339 338 335 336 340 343 349 349 348 350 348 349 349 353 358 353 351 353 352 352 351 350 350 351 351 349 351 353 354 354 354 354 352 353 352 351 351 350 351 352 353 353 353 353 354 353 352 350 348 347 344 346 346 346 346 345 345 346 345 345 345 345 345 345 344 344 344 346 343 340 344 342 341 343 343 343 342 342 344 345 344 342 341 340 341 340 339 339 338 338 336 335 334 333 329 325
336 338 337 335 337 342 344 348 349 350 351 350 352 350 353 356 354 352 354 355 353 352 352 352 352 351 350 350 353 354 354 354 353 353 353 352 351 351 350 351 352 352 353 352 351 351 353 353 351 349 348 345 346 345 346 347 346 345 345 345 345 345 345 345 345 343 342 343 344 342 342 344 339 339 343 343 343 341 342 345 345 344 343 342 342 342 341 339 339 338 337 336 335 333 331 327 325
334 334 337 338 339 342 345 347 349 350 352 353 353 351 353 354 354 354 355 354 352 353 354 355 354 351 349 351 352 353 353 354 353 353 352 351 352 351 351 352 351 352 352 351 350 350 352 353 351 349 347 345 346 344 345 347 346 345 345 344 344 345 345 345 345 342 341 341 342 343 344 342 340 341 342 342 342 341 342 345 345 344 343 342 342 341 340 339 339 338 335 334 334 332 330 330 332
333 333 336 337 338 340 343 346 348 350 352 353 353 351 354 356 353 351 354 353 351 353 354 354 353 350 349 351 351 352 353 353 352 352 352 351 350 351 351 352 352 351 351 351 351 351 352 353 351 348 346 345 346 345 346 347 346 345 345 345 344 345 344 344 344 341 341 341 342 344 343 342 342 342 343 343 342 341 342 344 344 343 342 341 342 341 340 340 338 335 333 334 336 336 337 338 342
332 335 337 337 338 341 344 345 347 348 349 352 353 353 356 356 353 350 352 352 350 352 353 353 352 350 350 349 350 351 352 351 352 351 351 351 350 351 351 351 352 351 350 351 352 352 353 354 351 347 346 348 347 345 346 346 346 345 343 344 344 344 344 342 342 341 342 342 344 345 343 342 342 342 344 343 342 341 341 342 342 342 343 342 341 341 340 339 333 331 334 339 341 342 345 344 346
332 336 337 338 339 341 344 346 348 348 348 351 351 352 354 354 352 351 351 351 350 349 353 354 352 352 350 350 350 350 351 350 351 351 350 350 349 351 351 351 351 350 350 351 352 352 353 353 351 348 347 349 349 347 347 346 346 346 343 344 343 343 342 341 341 341 340 342 343 344 342 342 343 343 343 343 342 341 338 339 340 341 343 342 342 341 339 335 331 334 341 344 344 345 347 347 346
330 334 336 339 341 343 344 346 348 347 348 350 349 349 353 353 352 353 350 351 350 348 351 353 353 353 351 351 351 349 351 351 350 351 350 350 349 349 350 350 350 350 350 350 351 352 353 353 352 350 348 347 348 347 347 347 347 345 343 344 343 342 340 340 341 338 338 341 343 343 342 342 342 342 342 342 342 341 339 339 340 341 342 342 341 340 337 334 334 341 345 345 347 347 347 347 346
330 332 334 338 343 344 342 345 348 347 350 350 349 350 352 352 352 353 351 350 351 349 350 353 353 353 352 351 350 349 351 350 350 350 350 350 349 348 349 349 349 349 349 350 350 351 353 353 352 352 349 348 348 347 347 347 347 345 344 344 343 342 341 341 340 339 339 342 342 342 342 343 344 343 343 343 343 342 342 342 341 341 342 342 340 339 338 337 339 343 345 345 345 346 347 347 347
331 331 336 340 342 344 342 344 347 347 351 351 349 351 353 351 348 351 351 349 351 348 350 354 352 352 352 351 350 350 350 350 350 350 350 349 348 349 349 349 349 348 349 349 350 350 352 352 353 352 350 349 348 348 348 347 346 345 344 343 342 342 340 340 341 341 343 343 342 342 343 344 345 345 345 345 345 343 343 343 342 340 340 340 339 340 342 342 343 345 345 346 346 346 346 347 346
331 333 337 340 340 343 342 343 345 344 351 351 348 350 353 351 348 349 348 349 350 347 351 353 352 352 352 350 350 350 349 350 350 350 350 349 349 348 348 349 348 348 348 348 350 350 351 352 352 352 350 349 349 348 348 347 346 344 345 343 342 342 340 339 339 340 342 342 342 342 342 345 346 346 347 348 347 344 343 342 341 340 340 340 341 344 346 346 347 347 346 346 347 346 345 345 344
330 333 336 339 340 342 341 344 344 343 351 352 350 350 351 348 348 348 347 348 348 347 352 351 351 354 352 350 351 350 350 350 350 350 350 349 349 349 348 349 348 348 348 348 350 350 350 351 352 353 350 349 350 349 348 347 347 345 345 343 342 342 341 339 338 338 339 341 342 343 344 347 347 347 348 349 347 345 345 343 341 343 344 342 344 347 347 348 347 347 348 347 347 346 344 345 344
330 331 334 340 343 343 342 342 339 340 350 351 350 350 349 350 347 346 346 346 348 347 351 351 352 354 351 350 349 350 351 350 350 350 350 350 349 349 348 349 349 348 348 348 350 349 349 349 351 353 350 348 350 349 348 348 347 345 345 344 343 343 342 341 340 339 338 340 342 345 347 349 348 349 349 348 345 345 346 346 344 345 346 345 346 347 348 348 347 348 351 350 349 346 345 345 343
329 329 332 338 339 343 346 344 339 341 345 347 348 341 340 349 347 344 347 345 348 349 350 352 351 351 351 350 348 350 351 350 351 350 350 351 349 349 348 348 349 348 349 349 350 349 348 350 350 352 350 347 350 350 347 348 349 348 346 344 343 343 343 342 342 340 338 339 342 344 347 349 349 350 350 348 346 347 347 346 345 346 346 346 347 348 348 349 347 349 351 349 348 346 344 345 343
328 328 331 335 332 336 349 345 339 342 346 348 345 336 336 346 347 346 347 346 349 349 349 352 350 348 351 351 349 350 351 351 352 350 350 351 350 349 348 348 349 348 350 349 349 348 348 350 349 351 351 347 350 350 347 348 349 348 347 344 343 344 343 343 342 341 338 339 341 342 344 348 349 348 348 348 347 347 347 346 345 345 347 348 348 348 349 349 347 346 347 345 346 346 343 343 342
328 324 324 331 329 333 347 344 338 340 346 349 343 336 339 344 344 347 350 348 349 348 347 351 349 348 349 350 351 351 352 351 351 351 351 351 350 350 349 349 349 349 350 349 349 349 349 350 349 350 350 348 350 350 349 349 348 348 347 345 344 345 344 343 343 342 340 338 340 342 344 346 346 345 346 347 347 346 345 345 346 346 347 348 347 348 348 348 346 344 344 344 344 344 344 342 341
328 325 320 325 326 331 340 341 339 338 340 343 341 338 338 342 345 346 351 350 348 347 347 349 349 349 349 351 351 350 352 352 351 351 350 350 350 351 350 351 351 351 351 350 349 349 349 350 349 350 350 348 350 350 348 349 349 348 348 346 345 346 345 344 343 342 340 341 342 343 345 345 344 342 344 345 346 345 345 346 346 345 348 348 346 348 349 348 348 345 344 343 342 343 343 342 341
324 325 322 324 326 326 330 336 342 338 338 340 342 341 337 341 345 346 351 349 345 347 346 347 349 349 349 349 350 352 352 352 352 350 349 351 353 353 353 353 353 352 352 351 350 349 350 350 348 350 350 349 350 349 346 348 350 349 349 348 346 347 347 346 344 343 341 342 343 344 345 344 342 342 342 344 345 344 345 347 346 345 350 350 346 349 349 347 347 346 345 343 342 342 341 341 342
321 322 321 323 326 325 325 334 340 338 339 340 337 338 338 340 343 347 350 348 345 347 347 347 348 347 346 349 350 350 352 352 351 350 352 354 355 355 355 354 354 352 351 351 351 350 350 350 348 349 350 349 350 349 344 347 349 348 349 349 347 347 349 348 345 343 342 341 342 341 342 341 341 341 340 342 344 344 346 350 349 349 352 350 347 348 349 348 348 347 348 345 342 341 341 341 341
324 325 323 321 323 324 327 334 338 336 334 335 332 332 334 339 342 344 348 347 345 345 346 345 346 345 345 348 349 349 351 353 351 349 354 357 355 354 354 355 354 352 351 351 352 351 351 350 349 350 350 350 350 347 345 347 346 346 348 348 348 348 349 349 345 344 344 344 342 340 340 341 341 340 339 341 344 345 348 351 350 350 350 348 347 349 349 348 348 347 348 346 345 344 344 344 341
328 327 324 323 321 322 327 331 334 335 330 329 330 331 332 335 341 345 345 346 344 342 345 346 344 345 347 349 351 349 350 353 351 350 354 357 355 353 353 355 354 352 352 353 353 353 352 351 350 351 351 351 350 344 344 347 346 347 348 349 349 349 350 349 347 346 346 346 346 342 341 342 340 339 337 338 341 346 350 350 349 349 349 347 349 350 349 348 347 345 346 346 346 345 345 344 341
328 326 323 322 322 323 330 331 332 336 332 328 329 330 332 333 337 342 343 345 344 341 344 347 346 347 349 349 351 351 350 353 354 355 357 356 355 353 354 354 353 353 354 354 354 353 354 352 351 352 351 351 349 343 342 346 346 347 349 349 348 348 351 349 347 348 348 347 347 345 344 342 340 339 336 335 339 345 348 348 348 350 348 347 350 350 347 347 347 347 348 347 346 345 345 342 340
325 325 322 320 322 324 328 333 336 336 332 329 330 331 331 334 334 339 342 343 344 342 344 348 346 347 351 349 350 351 351 354 355 356 358 357 356 355 354 354 353 354 355 354 354 354 354 354 352 353 351 350 350 345 342 346 347 346 347 349 347 348 350 349 349 349 348 348 349 346 344 343 340 339 336 335 340 344 347 347 347 350 349 347 348 348 345 345 346 347 348 347 346 345 343 341 340
325 323 320 318 323 322 322 331 338 338 335 331 332 331 330 336 333 335 345 346 347 348 346 347 345 345 349 349 350 350 351 353 354 355 356 356 356 357 355 354 354 354 355 355 355 354 354 354 353 352 351 350 350 347 343 346 349 347 347 349 348 348 350 349 349 349 348 349 351 347 344 344 342 339 336 336 340 343 346 348 346 348 350 346 344 344 343 343 345 346 346 344 345 345 342 341 341
324 324 321 320 323 323 324 331 336 338 338 335 333 328 328 335 334 337 348 348 349 350 348 348 347 345 346 348 349 350 351 350 352 354 354 353 355 358 357 355 355 354 355 355 355 355 354 354 354 353 351 351 351 348 344 346 350 349 348 349 349 348 349 349 349 349 350 350 350 347 345 345 342 339 337 337 339 341 344 347 347 348 348 345 342 342 341 341 344 346 346 345 346 346 341 340 341
321 325 325 323 325 325 326 329 331 328 327 334 334 324 324 333 336 340 345 344 346 347 347 348 348 346 347 350 351 351 351 350 351 352 351 351 352 355 357 357 356 355 355 355 355 354 354 355 355 354 352 352 352 349 345 347 350 349 349 350 348 348 348 349 349 349 349 349 347 345 346 345 342 340 337 336 339 340 343 346 348 350 347 342 344 343 342 344 346 345 346 347 348 346 342 340 341
319 324 327 326 326 326 325 325 324 318 320 333 336 324 321 327 332 338 340 340 347 349 348 348 349 351 351 352 352 351 351 350 352 352 351 351 351 352 354 354 355 356 355 355 354 354 355 355 354 354 353 352 352 349 345 346 349 348 349 350 350 350 348 349 350 349 349 348 346 346 346 344 343 342 337 337 340 339 341 345 348 351 347 341 345 347 345 346 347 347 346 348 348 344 343 342 341
319 326 327 327 327 326 326 325 322 319 323 331 334 327 321 322 330 339 338 339 347 351 350 349 352 353 353 353 353 349 350 349 349 351 351 350 350 351 352 352 353 354 355 355 355 355 354 354 354 353 354 353 351 350 346 345 347 347 348 348 350 351 349 349 350 349 349 347 347 347 345 344 344 344 340 338 342 340 338 342 345 350 350 344 345 349 348 346 347 347 348 347 347 344 343 344 342
323 328 328 327 328 327 326 325 322 323 324 322 326 327 323 324 333 342 341 337 341 348 349 349 352 353 351 351 353 349 348 351 350 351 351 350 351 352 352 353 353 353 354 355 356 355 353 352 353 353 353 352 351 351 348 346 346 346 347 348 350 350 349 350 349 349 348 347 348 348 346 345 344 345 343 339 343 342 336 339 343 348 353 350 345 346 348 349 348 349 349 347 345 344 343 343 344
327 328 328 328 328 327 327 327 324 325 324 319 321 325 324 325 332 336 338 339 342 347 346 345 349 351 349 349 349 348 347 350 354 354 353 353 353 354 354 354 354 354 355 354 355 355 352 351 353 353 353 351 350 351 350 348 347 346 347 348 349 350 350 350 348 348 349 348 349 348 347 347 345 345 346 340 342 343 335 337 342 344 351 352 346 345 347 348 348 348 349 347 344 343 342 342 345
327 327 326 326 328 327 328 330 327 323 323 323 323 326 325 324 330 335 337 340 343 345 346 348 349 345 345 346 347 346 347 352 356 356 356 355 355 355 354 355 355 355 355 354 353 353 352 352 351 353 353 352 351 351 350 349 347 347 347 346 348 350 349 349 348 347 349 349 349 348 348 348 345 344 347 344 340 340 335 334 339 341 345 347 346 346 347 346 347 346 345 345 342 341 342 344 346
326 327 325 323 323 325 326 328 327 322 322 325 325 327 326 322 328 337 338 340 342 342 348 358 357 346 343 344 343 344 346 351 355 356 355 355 355 354 354 355 354 354 354 354 353 352 352 351 351 352 352 352 351 350 349 349 348 348 347 345 346 348 347 348 350 348 348 348 347 348 348 348 346 343 347 347 339 337 335 332 336 338 340 342 343 346 347 346 347 347 346 344 341 341 341 344 347
327 325 322 319 319 320 321 321 322 321 322 324 326 328 325 323 329 336 338 340 340 342 346 352 351 344 343 343 343 345 346 347 352 354 354 355 355 354 354 354 354 354 353 353 353 352 351 351 350 351 352 352 351 349 350 349 349 348 347 345 345 347 347 348 351 349 347 347 347 349 349 348 346 343 346 348 343 342 341 334 334 337 336 337 341 343 345 346 347 350 350 345 341 343 341 339 343
325 324 320 318 317 318 319 319 318 320 321 323 330 329 322 325 333 335 336 338 340 343 344 343 343 342 343 344 343 344 345 345 347 350 352 354 355 355 354 354 354 354 353 352 351 351 351 350 350 351 352 352 351 350 351 350 350 349 346 345 345 347 347 348 349 348 346 347 346 348 349 348 346 344 345 346 344 345 345 336 333 338 338 338 341 343 344 345 347 350 352 347 345 347 345 340 340
326 326 325 319 318 318 318 317 317 319 320 323 328 326 322 328 336 336 336 338 340 341 343 344 343 340 341 344 344 344 344 345 345 348 352 353 355 354 354 353 353 353 353 351 350 351 351 349 349 352 352 351 350 350 351 350 349 348 346 346 345 345 345 345 347 345 346 347 345 346 348 346 346 345 345 343 343 346 346 339 334 338 342 341 341 345 344 344 346 349 349 348 346 347 347 344 341
326 328 326 320 321 321 318 317 319 318 319 323 324 324 329 334 338 336 336 338 340 343 344 345 343 341 342 343 343 343 345 347 346 349 353 353 353 353 352 352 352 352 351 350 350 350 350 350 350 352 350 349 350 350 350 349 348 348 346 346 346 345 344 344 344 345 346 347 346 345 345 345 345 345 345 344 343 344 346 342 335 337 343 344 342 342 343 343 343 343 345 346 346 345 346 348 347
325 324 321 323 327 325 318 317 320 319 320 323 323 326 332 335 336 338 339 338 340 342 343 342 344 345 344 343 343 343 346 347 347 350 352 352 352 352 352 352 351 352 350 350 350 349 350 350 351 352 350 349 349 348 347 348 348 347 347 346 346 345 344 344 345 345 345 346 345 345 344 343 343 343 346 347 344 344 346 344 336 336 341 343 339 335 337 338 338 338 341 344 345 344 344 350 351
325 320 322 327 327 326 322 319 320 320 321 323 324 326 327 328 332 340 341 340 339 341 342 341 343 344 344 343 344 344 344 345 347 350 352 351 351 352 353 352 352 351 349 349 350 349 350 350 350 350 349 347 346 346 346 347 348 347 346 346 346 345 344 344 344 345 346 345 345 345 344 344 343 343 346 347 345 345 347 345 338 337 340 339 335 333 334 335 336 339 341 341 341 342 344 349 353
327 325 327 326 320 320 321 319 320 320 319 322 324 326 327 325 329 336 338 338 339 341 343 342 342 342 342 342 345 344 344 344 346 349 350 351 350 350 352 352 351 350 347 348 349 349 349 349 349 348 347 346 346 346 346 346 347 347 346 346 346 345 345 345 345 346 346 346 345 346 345 344 344 344 345 347 347 346 347 348 343 340 341 338 334 335 336 335 336 338 341 341 340 341 343 348 352
327 327 329 326 321 321 320 320 320 319 320 322 323 325 327 328 332 336 338 339 339 342 343 342 341 342 341 343 344 345 345 346 347 347 349 351 350 349 351 351 349 346 344 345 347 347 347 347 347 347 347 347 346 346 345 346 346 347 347 347 346 346 345 346 346 345 345 345 344 345 345 346 346 346 347 347 348 347 347 348 346 344 345 342 336 336 337 337 336 337 341 345 344 344 343 344 348
325 323 323 324 324 324 323 322 321 320 321 323 326 327 327 330 337 339 337 339 338 339 342 343 343 343 343 346 345 344 346 346 347 346 346 349 350 349 352 351 347 342 341 341 342 345 346 346 346 346 347 347 347 346 347 347 347 347 347 347 347 346 346 347 347 346 345 345 344 345 346 346 347 348 348 347 346 346 346 347 347 345 346 346 341 338 340 342 340 338 341 346 349 350 348 345 344
327 324 323 324 324 322 321 320 322 321 321 322 325 327 327 332 339 338 337 340 339 339 343 343 343 342 343 346 346 345 346 346 347 346 345 347 349 350 352 352 348 343 341 341 340 341 344 345 347 346 347 348 347 347 348 347 347 347 347 347 347 348 346 346 348 348 346 345 345 346 346 347 347 347 347 347 346 347 346 348 347 342 341 346 345 339 342 347 346 342 340 343 349 351 350 350 346
Wind_Speed
6 7 6 5 6 4 5 4 1 2 1 1 2 1 2 4 1 3 5 4 4 7 9 10 12 12 12 13 15 16 14 10 6 4 7 14 19 16 15 16 16 16 15 16 15 14 14 15 15 16 16 16 15 15 14 13 13 13 12 11 13 13 14 14 13 13 12 12 12 13 14 15 15 16 16 16 16 16 17 18 19 20 21 21 21 21 20 20 19 18 17 17 16 14 13 13 13
7 4 3 4 6 4 4 4 1 1 1 1 2 1 3 1 3 2 3 6 4 8 11 12 14 15 15 16 17 16 16 15 16 17 18 21 21 18 17 18 19 18 16 16 15 14 14 14 15 15 16 15 15 14 14 13 13 13 12 11 12 13 13 13 12 12 12 12 13 13 13 14 15 15 15 15 15 16 16 17 18 20 21 21 21 21 21 20 20 19 18 18 17 15 15 14 13
3 2 1 3 7 4 3 2 1 1 1 1 1 1 4 2 5 5 4 9 8 9 12 12 12 12 13 14 13 12 12 15 19 22 22 22 21 21 18 17 20 17 16 16 15 15 14 13 14 15 15 15 14 13 13 12 12 13 12 11 12 12 12 11 11 11 12 12 13 14 13 13 14 15 15 15 15 15 16 17 18 19 21 22 21 21 21 21 21 20 19 19 18 15 16 15 13
5 3 2 3 5 3 2 1 2 2 1 0 1 4 5 5 5 5 8 10 10 9 9 10 10 12 13 12 12 12 12 15 16 19 21 20 20 23 20 18 21 18 16 15 14 14 14 13 13 14 14 14 13 12 12 11 11 13 12 11 12 12 11 11 11 11 11 12 13 13 13 13 13 13 14 15 15 14 15 16 17 18 20 21 21 20 20 20 20 20 20 19 18 16 16 15 14
5 2 3 2 2 2 2 1 2 1 1 0 1 6 1 6 5 7 8 7 7 7 8 9 11 14 14 12 11 11 12 15 15 17 19 20 22 23 21 20 20 19 17 15 14 14 14 13 13 13 13 13 13 11 11 10 10 12 12 11 12 11 11 11 10 11 11 11 12 13 13 13 13 12 13 15 15 14 15 16 16 17 19 20 20 20 20 19 19 20 20 19 17 16 15 15 15
4 4 3 1 2 2 1 1 2 1 2 1 1 6 3 4 2 8 8 7 7 6 8 9 12 15 14 14 13 12 12 14 16 17 21 23 24 23 22 20 19 18 16 15 14 14 14 13 12 13 13 12 12 11 10 10 9 10 11 11 11 11 11 11 11 11 11 12 12 13 14 13 13 12 12 13 14 15 16 16 15 16 17 19 20 20 19 19 19 19 19 18 17 16 14 14 14
2 1 1 1 2 3 1 0 2 2 1 1 2 6 4 6 7 6 5 4 7 6 9 11 13 12 10 13 13 12 11 13 16 19 22 25 24 23 22 19 17 17 16 15 14 14 15 13 13 13 12 12 11 11 10 10 10 9 10 10 10 11 11 11 11 11 11 12 12 13 14 13 12 13 13 12 14 14 15 16 15 16 16 17 18 19 19 19 19 19 18 17 16 15 14 13 13
4 4 3 2 1 2 1 1 1 2 1 2 4 7 6 8 12 6 3 1 5 4 8 11 12 10 8 12 13 11 12 14 18 22 24 25 24 22 21 17 17 17 15 14 14 15 15 13 12 12 12 12 11 11 10 10 9 9 9 9 10 10 10 10 11 12 12 12 13 13 13 14 13 12 13 13 13 14 14 15 15 16 17 16 16 18 19 19 19 19 17 16 16 15 13 13 12
3 5 4 2 1 1 1 1 1 1 2 5 4 7 7 9 12 9 6 2 6 6 9 11 12 12 11 15 15 13 15 17 21 23 23 23 22 21 20 17 17 18 16 14 14 15 14 13 11 11 12 11 10 10 9 9 9 9 8 8 9 9 9 10 12 12 13 13 13 14 14 14 13 12 12 13 14 13 14 15 16 16 17 16 15 16 18 18 18 17 16 15 15 15 13 12 12
4 6 4 2 1 1 1 1 2 2 3 6 3 6 8 9 9 10 12 7 6 8 12 13 12 12 13 14 13 14 16 19 21 22 22 22 21 19 19 18 18 18 16 15 14 15 13 12 11 10 11 10 9 8 8 8 8 8 8 8 9 10 9 10 11 11 12 14 14 14 14 14 13 13 12 13 14 13 14 15 15 16 17 16 15 16 16 17 17 16 15 14 14 14 13 13 12
5 7 6 4 1 1 1 1 2 3 2 5 3 7 9 10 8 9 14 11 9 9 12 9 9 13 13 13 12 14 16 19 20 21 21 20 19 19 19 18 18 17 16 15 13 13 12 11 10 9 10 9 8 8 8 8 8 7 7 8 8 10 10 10 10 11 11 12 15 15 15 14 14 14 13 14 14 14 15 15 15 16 17 17 16 16 16 16 15 15 15 14 13 14 14 13 12
7 4 5 2 3 1 1 2 1 2 2 3 2 7 8 11 10 6 11 11 11 11 11 7 8 11 9 11 12 14 16 18 18 20 19 19 19 19 19 17 17 17 15 13 12 12 11 11 9 8 9 9 9 8 8 8 8 8 7 7 8 9 10 10 10 11 11 12 14 15 16 15 14 15 15 15 15 14 14 15 15 16 17 17 17 16 16 15 14 14 14 14 14 13 14 13 12
7 5 2 2 2 2 1 3 1 2 3 1 2 5 6 10 7 2 8 10 11 11 12 11 11 11 8 10 12 14 15 16 18 18 18 18 19 18 18 17 17 18 14 11 11 11 10 10 9 8 8 8 8 8 7 7 7 7 7 7 8 9 9 10 10 10 11 12 13 14 16 16 14 15 17 16 15 15 14 15 15 16 17 17 17 16 15 14 14 14 13 13 12 12 12 11 11
7 7 5 2 3 3 1 2 1 2 1 2 2 4 6 7 2 2 6 6 9 10 10 10 9 9 9 10 11 14 15 16 18 17 17 17 18 18 18 18 18 18 15 12 10 11 10 9 9 8 8 7 7 7 6 6 6 6 6 6 7 8 9 10 10 10 10 11 13 13 14 15 15 15 16 16 15 15 15 15 15 16 16 17 16 15 14 13 13 13 13 13 12 11 11 10 11
9 8 5 3 2 3 1 1 2 2 2 3 3 4 5 5 1 3 7 6 9 14 12 10 8 3 7 8 8 14 16 17 18 16 17 17 17 17 18 18 17 16 15 12 10 10 10 9 8 8 8 7 6 5 5 5 6 6 6 6 7 8 9 9 10 10 10 11 12 13 13 14 15 14 15 16 14 14 15 14 15 15 16 17 17 15 14 14 14 14 13 14 13 12 11 11 11
10 9 4 4 2 4 2 3 4 3 3 3 4 4 4 4 3 6 10 10 9 15 15 12 12 5 6 7 10 16 18 18 17 16 17 16 17 17 17 17 17 16 15 13 11 9 8 8 8 7 8 6 6 5 4 4 5 6 7 7 7 8 8 9 10 10 11 12 13 14 13 13 15 15 14 15 14 14 15 15 15 16 17 17 17 16 15 15 14 14 14 14 13 12 12 12 12
9 8 4 4 4 6 5 7 5 3 2 3 4 4 5 7 8 8 9 12 9 10 14 12 10 5 5 9 13 17 18 18 18 17 17 17 17 17 16 16 17 16 14 12 12 10 9 9 7 6 7 6 7 6 5 4 5 6 7 7 7 8 8 9 10 12 13 13 14 16 13 13 15 15 15 16 15 15 15 15 16 16 17 18 17 17 16 15 16 15 15 14 13 13 12 12 13
7 4 4 4 5 6 6 7 5 3 2 4 2 3 6 6 7 5 3 11 11 8 14 13 10 8 6 11 16 18 18 18 18 18 18 17 16 16 16 15 14 14 13 12 12 12 11 9 8 6 6 7 6 6 5 4 5 6 6 7 7 8 9 10 11 12 13 12 15 18 16 15 16 15 15 16 16 15 15 15 15 16 17 18 18 18 17 17 17 16 16 15 14 14 13 12 13
5 3 3 5 6 6 6 6 5 4 3 4 2 3 6 4 2 1 0 9 11 6 8 7 6 6 8 14 16 17 18 17 18 18 17 16 16 15 15 15 14 13 13 12 12 13 12 9 8 7 6 6 6 5 5 4 5 6 6 7 7 9 10 11 13 12 12 12 14 18 18 17 17 15 15 16 17 16 15 15 16 17 18 18 18 18 18 18 17 17 17 17 16 15 13 12 12
3 2 3 5 5 6 9 6 4 4 4 3 2 3 6 4 2 2 3 7 9 5 1 2 6 8 9 13 15 15 17 17 17 17 16 15 15 15 14 14 14 14 12 11 11 11 11 10 8 8 7 7 8 6 5 5 5 6 7 7 8 10 11 12 13 12 12 14 15 17 19 19 19 17 16 17 18 17 16 16 17 17 17 17 18 19 19 19 18 18 18 18 16 15 14 14 12
4 4 4 4 4 5 9 7 4 3 3 3 3 3 6 5 1 3 3 4 6 6 6 7 13 15 12 11 13 14 15 16 16 16 16 15 15 14 13 13 13 14 13 11 11 10 11 11 8 8 8 6 7 7 6 5 7 8 8 8 9 10 11 13 13 13 14 16 17 18 20 21 20 18 17 18 18 17 18 18 18 17 18 18 18 19 19 19 19 18 18 17 15 14 12 12 11
5 4 4 4 6 6 8 8 4 2 3 3 4 3 4 4 2 3 3 2 4 6 8 11 14 17 15 12 11 13 14 15 16 16 15 15 15 14 13 14 13 14 14 13 12 11 11 11 9 8 8 7 7 8 7 6 8 9 8 8 10 11 13 15 15 16 17 18 18 18 21 22 20 19 18 18 17 17 18 18 18 18 18 19 18 18 18 17 17 17 16 14 13 12 10 9 11
5 1 4 4 7 6 7 9 3 1 4 3 2 4 6 4 2 3 4 4 5 7 8 10 13 15 17 14 11 12 14 14 15 15 15 15 15 14 14 14 14 14 14 13 14 12 12 11 9 8 9 8 7 8 8 8 8 8 9 9 11 14 15 16 17 19 19 18 19 19 20 22 21 20 19 18 17 16 18 18 17 16 17 18 17 16 17 16 16 15 13 12 11 11 10 9 11
8 1 6 5 5 6 7 8 4 2 4 3 1 3 5 4 3 4 5 7 8 8 7 9 13 15 16 15 14 13 13 14 14 14 14 14 14 14 14 14 13 14 14 13 14 13 13 13 11 10 10 9 9 9 9 9 8 8 10 11 12 15 16 17 18 20 20 19 20 20 21 21 21 20 19 18 17 16 17 17 17 16 17 17 17 17 17 17 16 13 10 10 9 8 10 10 9
7 6 7 4 5 7 7 6 5 3 2 2 2 3 3 2 4 6 5 8 11 10 9 11 13 15 16 17 17 15 12 14 13 13 14 13 13 13 13 14 14 13 14 14 14 14 14 14 13 12 10 10 10 11 10 10 10 10 11 11 13 15 16 17 19 21 20 20 22 22 21 21 20 19 19 18 17 17 17 17 17 17 17 16 18 18 17 17 14 10 8 9 7 7 9 8 6
4 8 7 5 6 7 5 5 3 2 2 2 2 3 4 2 4 6 6 8 11 11 11 13 15 16 16 17 16 13 12 14 13 13 13 13 13 13 12 13 13 13 14 14 14 14 14 14 14 13 12 11 11 11 11 11 11 11 11 12 13 15 16 17 20 21 19 20 23 23 22 22 20 18 18 18 16 17 17 17 17 18 17 18 18 17 15 14 11 8 8 8 8 9 9 7 5
6 8 5 4 4 2 2 4 1 2 2 2 2 1 3 2 4 2 5 11 12 13 13 14 16 17 16 17 16 14 12 13 13 13 12 12 13 13 13 13 12 13 14 14 14 14 14 14 14 14 14 13 12 11 11 12 12 11 11 12 14 15 16 18 19 19 19 20 22 23 23 22 20 19 18 18 17 17 18 17 18 18 18 18 17 15 12 10 8 7 7 8 8 10 11 10 8
8 8 5 1 1 1 1 1 1 3 1 3 1 2 2 3 3 2 5 11 12 13 16 15 14 14 15 17 17 14 13 13 13 15 13 12 13 12 13 13 12 13 13 14 14 14 14 14 15 14 14 15 14 12 12 12 12 12 12 12 15 16 16 19 19 19 19 20 22 23 22 20 18 18 17 17 18 19 17 16 17 17 16 17 14 13 11 8 7 7 7 7 6 7 9 9 8
10 8 5 4 2 2 0 1 1 1 3 5 3 3 4 3 3 3 6 8 10 14 17 17 15 14 16 16 15 13 14 14 13 12 11 12 13 12 11 12 12 13 12 14 14 14 14 15 15 14 14 15 16 14 12 12 12 11 11 12 15 16 17 19 19 19 20 21 23 22 21 20 19 18 16 16 18 18 16 15 16 16 15 15 13 12 11 10 10 9 7 8 7 6 8 6 6
12 9 6 4 4 3 1 0 3 2 5 6 3 2 2 4 4 4 6 4 7 12 10 14 16 15 16 16 17 15 16 17 15 13 12 13 14 13 12 11 12 13 13 14 14 14 14 15 15 14 14 15 16 15 13 13 13 12 11 13 15 16 17 19 19 20 21 22 22 22 22 21 20 19 17 17 17 16 15 14 14 14 13 13 12 12 13 11 9 7 6 9 9 8 9 6 3
9 9 6 5 4 3 3 6 6 2 6 7 4 4 1 4 4 4 4 5 9 16 11 15 17 11 11 19 21 20 19 17 16 15 14 13 13 14 13 12 12 12 13 14 14 15 15 14 15 15 14 15 16 16 13 12 14 12 11 13 15 15 16 18 19 19 21 23 23 22 21 19 20 20 18 18 15 14 16 15 13 12 13 14 14 13 12 11 9 8 7 8 8 7 9 7 5
8 7 5 4 1 2 7 9 7 3 3 6 5 4 1 5 3 5 4 6 7 18 15 18 23 18 15 21 21 19 17 15 15 16 18 16 13 14 14 12 13 13 13 13 14 15 15 15 15 14 15 15 16 17 14 13 15 12 10 12 14 15 15 16 18 19 21 23 23 22 19 18 20 19 18 18 13 13 15 14 13 14 15 15 16 14 12 11 11 10 8 7 7 8 9 8 9
8 7 6 2 2 5 8 7 7 5 3 5 6 3 4 3 4 4 6 6 5 12 11 13 22 25 21 20 16 17 16 15 17 17 19 18 13 15 14 12 16 16 13 13 14 14 15 15 15 14 15 16 15 17 17 16 17 13 11 11 12 14 15 16 17 18 21 22 21 21 19 18 20 18 18 17 13 13 14 13 15 15 14 12 15 14 11 12 12 11 11 8 7 8 10 11 9
2 4 6 3 5 5 5 6 7 6 4 5 6 5 6 3 7 7 10 9 6 10 11 9 13 17 19 17 15 18 19 17 18 19 19 18 15 15 15 14 18 19 15 13 14 15 15 14 14 14 15 16 16 17 18 18 18 16 13 12 13 13 13 14 15 16 19 20 19 19 17 17 19 18 19 18 14 13 14 13 14 15 13 11 14 13 11 11 11 12 12 9 8 7 11 11 8
6 5 5 4 5 4 0 5 7 7 7 6 7 7 7 6 9 8 12 12 8 10 13 13 13 14 13 15 17 18 18 18 18 20 19 17 18 17 16 18 19 20 19 15 13 14 15 14 15 15 16 17 16 16 18 17 18 18 16 14 14 14 13 13 15 17 18 18 18 18 17 17 19 18 19 20 16 14 15 14 13 15 13 13 14 12 11 9 8 11 10 8 10 9 8 7 6
12 8 8 8 6 5 4 3 9 6 4 6 9 7 6 6 12 10 12 13 10 9 12 11 9 10 8 11 20 19 16 17 19 21 20 16 18 18 16 19 19 19 20 16 14 14 15 16 16 16 17 17 17 18 19 16 17 18 17 16 17 17 14 12 15 17 17 17 17 18 18 18 18 17 19 21 18 17 16 14 15 16 14 16 16 12 10 10 10 11 8 6 9 9 6 4 5
12 9 7 9 8 7 8 5 10 6 1 7 10 7 7 3 9 13 14 14 11 8 10 11 9 8 8 8 15 20 16 18 19 20 21 18 17 17 16 18 18 18 18 17 16 15 16 17 17 17 18 19 18 19 20 18 18 19 18 17 19 19 16 14 15 16 17 17 16 18 19 19 18 18 19 20 20 19 16 15 16 16 15 16 16 13 12 12 12 12 9 7 7 6 4 3 6
9 8 8 9 8 8 8 3 8 6 2 6 10 7 7 7 6 13 16 13 10 9 8 10 9 7 7 9 12 18 16 16 18 17 19 19 16 17 16 17 17 17 17 17 18 18 17 17 18 19 20 20 19 19 20 19 18 20 19 18 18 20 18 16 17 16 16 17 16 18 20 20 19 19 19 19 19 18 16 16 16 15 15 17 15 13 14 14 12 12 12 10 7 5 4 4 7
9 8 8 8 7 9 7 3 8 6 2 6 9 8 6 5 5 6 14 13 9 9 4 6 10 3 4 8 6 12 13 15 18 18 19 17 16 17 17 17 17 17 17 18 19 21 20 19 20 21 21 21 19 19 21 19 18 19 19 17 17 19 19 18 18 16 17 18 16 18 21 20 19 19 21 20 18 17 17 17 16 15 15 16 15 14 15 14 12 11 12 11 7 6 6 5 4
9 7 8 8 7 9 4 4 5 6 5 7 7 7 7 5 7 6 10 17 11 7 4 4 11 11 6 12 11 11 13 12 13 16 19 18 16 17 18 18 18 18 19 19 21 24 25 23 23 24 23 22 21 20 22 20 18 18 19 18 16 16 18 19 19 17 17 18 17 19 21 21 20 19 21 21 18 18 17 16 17 16 15 15 16 16 16 14 12 11 12 11 7 5 7 7 5
9 10 10 8 10 13 4 4 7 8 8 9 6 5 6 6 7 3 9 16 11 6 3 1 7 12 8 12 14 13 13 10 9 14 17 18 18 18 19 20 20 20 21 22 24 26 27 26 26 27 23 22 22 21 22 21 19 19 20 21 19 17 18 19 20 20 19 19 19 21 22 21 20 20 21 22 20 19 18 17 16 15 15 15 16 15 15 14 12 10 10 10 6 6 8 8 9
9 11 12 10 11 13 7 1 7 6 6 8 6 4 3 4 1 5 7 9 8 6 4 2 3 4 3 5 4 5 10 9 7 9 12 15 19 21 21 21 21 22 23 24 24 24 25 26 27 27 24 24 24 22 22 22 21 22 21 23 22 21 22 21 21 24 23 21 21 22 21 21 21 19 21 22 20 20 19 18 17 14 15 16 15 13 13 12 11 9 8 6 6 8 9 7 9
7 3 9 16 9 5 9 8 5 6 5 8 9 4 3 4 3 5 5 6 8 5 3 2 3 3 4 4 5 3 6 11 6 8 9 10 16 21 23 24 25 26 27 26 25 25 27 29 29 27 26 27 25 23 24 24 23 23 23 24 23 22 24 23 21 22 23 22 21 21 21 21 21 19 20 22 21 21 21 20 19 15 15 17 15 13 13 12 10 10 10 9 8 9 8 7 8
5 3 9 14 5 1 9 11 8 8 5 6 10 4 4 4 3 6 2 3 5 4 3 3 7 7 2 3 5 7 5 9 11 10 10 9 11 15 18 21 25 27 28 29 29 31 31 31 30 29 28 27 26 24 25 25 25 24 24 25 23 21 23 23 22 21 21 22 21 21 21 21 22 20 20 22 21 22 23 21 20 16 14 16 17 14 12 11 10 11 12 12 10 9 8 8 7
3 6 11 11 8 8 8 9 8 7 7 2 4 2 4 3 3 5 3 2 2 3 2 4 8 5 0 3 6 7 8 7 10 13 11 9 9 11 12 15 19 22 26 30 34 35 33 32 32 31 29 28 27 26 26 26 26 25 23 24 24 23 22 21 23 22 20 21 21 21 22 21 22 21 20 22 21 21 24 23 20 19 16 15 18 16 13 11 12 12 12 11 11 10 9 8 6
5 10 11 8 8 7 7 8 6 8 7 6 7 5 3 2 2 2 1 2 3 2 3 5 6 3 1 3 6 8 9 8 7 9 9 8 9 11 10 13 16 17 21 28 33 34 33 33 33 32 30 30 28 27 27 27 26 26 25 25 25 25 23 20 22 23 20 21 21 20 22 21 22 23 20 22 22 21 24 24 22 22 19 17 17 16 12 11 13 13 13 13 13 12 10 9 6
10 7 6 7 7 5 6 3 5 6 5 7 12 10 6 3 2 3 2 3 4 3 4 5 5 3 3 3 6 11 10 7 6 5 5 6 7 7 8 13 17 16 17 21 26 29 31 33 33 32 32 31 31 30 30 29 28 27 26 26 26 26 25 22 22 24 22 23 22 20 21 22 23 24 20 20 24 23 24 25 24 24 22 19 17 15 12 12 12 13 15 16 14 13 10 8 7
9 6 5 6 4 3 4 2 2 5 4 7 12 10 8 6 2 5 4 4 6 5 5 4 3 4 5 4 6 10 8 6 6 6 5 5 5 5 7 12 15 15 14 15 17 22 27 32 33 33 34 34 34 32 30 29 29 28 27 26 27 26 26 24 23 25 25 25 24 22 23 23 22 23 21 21 24 24 24 24 24 25 24 22 19 17 14 13 12 11 13 16 15 14 13 11 9
6 6 6 5 3 3 4 2 4 5 5 10 8 3 6 4 1 4 4 4 7 8 7 8 4 6 5 4 5 5 5 6 7 5 4 4 4 4 6 10 11 10 10 11 13 17 22 29 33 34 37 37 34 32 31 31 30 29 27 27 27 26 27 26 25 26 27 26 25 24 25 24 22 23 23 22 23 23 23 25 24 23 23 22 19 17 16 14 13 12 12 15 14 12 14 14 12
8 7 5 4 4 5 6 6 6 4 6 9 4 3 6 2 3 4 5 6 9 12 12 13 12 12 8 5 5 4 6 7 7 6 5 4 4 3 5 8 8 7 8 9 12 16 17 23 31 35 37 36 34 33 31 31 30 28 28 27 26 26 28 27 25 26 28 29 28 26 25 24 22 23 25 25 23 22 23 25 25 22 21 21 18 16 17 17 17 16 14 14 13 12 13 14 14
7 7 6 5 4 6 7 5 6 5 4 3 6 4 5 1 3 2 5 7 10 12 13 15 12 11 8 3 3 5 6 6 7 7 4 3 3 2 3 4 5 6 8 7 10 15 17 23 30 35 36 35 34 33 31 30 29 28 28 27 26 26 27 28 26 26 28 30 30 29 27 26 23 23 25 25 24 23 23 24 25 23 19 19 21 20 18 19 19 18 16 14 13 13 12 12 13
5 7 7 5 4 5 6 5 6 8 5 3 3 1 5 3 4 2 3 6 10 10 11 13 12 9 7 5 5 6 5 6 8 6 4 3 2 2 2 2 3 6 8 7 8 12 17 24 30 33 34 34 32 30 29 29 29 28 27 26 26 26 26 27 27 27 29 30 29 30 30 28 26 23 22 24 26 24 23 25 26 25 22 21 24 24 21 20 20 18 17 16 14 13 11 11 12
2 6 4 1 6 7 5 6 6 7 5 4 3 3 5 4 2 2 2 4 8 9 9 9 10 10 8 7 7 5 4 6 9 6 5 4 3 3 3 4 3 5 7 8 9 11 15 22 29 30 31 31 29 28 28 28 28 28 26 25 25 26 26 27 28 28 29 29 28 28 30 29 26 25 22 22 26 25 24 26 27 26 25 24 26 26 23 21 19 18 17 18 17 14 13 13 13
3 5 4 5 7 5 2 4 4 4 4 3 3 2 3 2 1 2 3 4 5 6 7 8 8 9 8 5 4 4 5 7 8 6 4 4 4 4 4 6 6 6 7 8 10 12 13 18 25 27 26 26 25 25 25 27 29 28 26 25 25 25 26 27 28 28 27 27 26 26 28 28 28 28 26 24 25 26 24 25 27 26 26 26 25 24 23 21 19 18 18 19 19 16 15 15 15
7 8 8 5 5 3 2 4 4 5 5 2 1 1 2 2 0 3 3 2 5 5 5 5 6 6 4 2 3 3 4 6 8 7 6 6 7 6 6 8 8 7 7 9 10 11 13 17 21 23 23 22 22 22 23 25 27 27 26 25 25 24 25 27 28 28 27 26 25 24 25 27 28 28 28 26 25 25 24 24 26 25 25 26 25 22 22 22 21 19 18 19 20 18 18 18 17
9 8 7 6 5 3 2 3 3 6 5 2 2 1 0 1 4 6 4 3 3 5 4 3 3 2 1 2 5 5 4 5 8 9 9 8 7 8 9 10 10 9 8 8 9 11 14 16 18 19 20 19 19 19 20 22 24 25 25 24 24 24 24 26 27 28 28 26 25 26 26 27 29 29 28 29 27 25 26 26 25 24 23 24 25 23 22 22 21 21 19 18 18 18 19 20 20
7 7 5 5 5 2 2 4 4 5 5 2 1 1 1 1 6 8 8 5 3 3 3 3 2 0 1 3 4 7 6 6 9 11 10 9 8 10 12 11 10 10 9 8 8 10 13 15 16 17 17 17 17 17 19 20 21 22 23 22 22 23 23 24 24 25 27 26 26 28 29 27 30 31 29 28 29 27 26 25 25 25 25 23 24 25 22 20 21 21 20 19 17 17 18 20 22
4 5 3 4 5 3 4 5 5 6 6 3 2 1 2 2 4 4 7 7 6 5 6 6 4 3 2 3 4 5 5 6 10 10 9 10 8 11 13 11 10 10 9 9 8 9 11 13 15 15 16 16 16 17 19 20 21 22 22 22 21 21 22 22 21 23 25 26 26 28 29 28 28 30 29 28 27 27 26 25 26 28 27 24 24 25 23 20 20 21 21 20 19 19 21 21 21
Wind_Direction
59 36 30 353 352 339 356 1 261 116 34 332 282 288 208 229 62 114 129 124 115 105 99 81 73 71 78 80 76 69 51 44 54 77 115 135 144 146 154 150 141 137 131 129 131 135 138 136 134 130 129 129 128 131 131 132 133 128 129 132 125 121 127 129 127 126 123 124 128 132 135 140 144 141 141 147 151 153 153 151 155 160 162 164 165 165 166 167 166 165 161 160 162 163 162 158 156
62 22 10 314 335 343 4 17 283 108 37 316 255 234 242 262 80 198 146 114 116 110 103 88 83 83 91 90 84 75 59 59 75 90 114 135 138 138 144 140 136 136 133 131 132 136 139 137 133 129 129 131 132 135 135 137 137 132 131 130 125 125 128 128 128 128 129 131 132 133 135 138 142 144 144 149 153 154 154 154 155 156 163 167 166 167 170 170 169 171 168 164 165 166 165 161 159
100 261 252 296 332 342 342 359 311 6 22 288 269 212 230 190 130 176 124 110 115 113 109 97 86 88 97 92 82 81 80 80 92 104 119 137 136 137 146 140 133 132 132 133 134 137 139 136 133 130 132 133 133 137 139 142 140 133 132 133 132 132 132 131 134 135 136 138 139 138 139 142 143 146 147 152 153 151 154 156 156 156 162 166 166 168 170 170 170 172 170 167 167 167 167 163 160
120 236 260 302 331 340 327 339 309 346 359 191 329 261 210 142 126 123 96 104 113 113 109 99 82 81 91 91 88 90 99 98 105 116 127 140 136 138 144 139 133 132 133 133 137 139 139 137 135 134 135 135 134 139 142 144 141 134 137 141 139 137 138 140 143 144 144 143 144 143 145 147 147 147 146 153 155 150 152 155 157 159 163 165 165 168 170 170 171 173 170 169 170 170 171 166 163
85 300 279 319 359 335 314 318 294 344 299 220 163 276 249 111 128 111 94 99 105 103 105 104 89 89 90 87 94 95 102 106 114 121 127 136 135 137 138 137 136 135 136 134 139 142 140 138 138 138 137 136 136 141 142 142 141 137 142 144 140 141 143 144 150 151 148 147 146 145 147 148 149 150 146 151 157 154 152 153 156 160 163 165 165 168 172 171 173 175 172 172 174 174 175 173 169
54 336 280 252 1 306 291 317 302 269 282 318 176 275 328 63 95 103 109 121 104 95 105 102 94 96 86 77 87 96 109 112 117 126 129 133 136 136 133 137 138 136 137 136 143 143 140 141 143 142 138 140 139 142 142 141 142 142 144 143 144 146 149 148 151 153 150 149 146 145 146 147 149 151 150 151 153 154 154 154 158 160 162 164 165 168 172 173 175 177 176 175 178 177 178 180 174
203 316 249 155 341 277 253 356 291 296 25 42 235 279 331 357 338 69 91 116 102 89 100 100 98 102 93 89 91 93 108 114 119 128 132 134 136 134 132 141 140 136 137 139 144 141 140 143 146 145 141 141 139 142 142 141 142 144 144 144 148 148 152 153 152 153 151 151 147 145 145 145 149 151 152 154 154 156 157 156 160 161 161 165 167 168 170 174 177 179 179 177 178 178 180 181 178
215 222 209 175 307 214 241 347 260 312 10 270 269 303 333 347 335 20 23 353 99 85 96 102 99 92 90 95 94 93 101 111 119 127 131 134 135 134 134 141 140 135 138 140 142 141 141 144 150 148 144 142 140 142 141 141 139 141 141 142 147 145 151 155 153 154 152 153 150 144 143 143 149 155 154 155 155 156 158 159 162 161 162 165 167 168 171 175 178 180 179 178 179 180 183 181 179
236 225 223 209 281 217 248 343 354 330 278 269 280 321 333 359 347 1 342 317 102 93 84 88 90 90 97 95 95 101 104 113 121 126 131 134 134 135 134 136 137 136 139 142 143 142 140 144 152 149 145 145 143 144 146 146 143 145 144 142 149 148 152 157 157 159 155 155 151 143 141 143 148 155 157 155 154 155 158 162 163 161 162 164 166 168 172 175 177 180 179 180 182 181 183 182 182
232 206 236 280 298 290 305 41 337 251 256 272 282 340 342 4 353 352 346 346 58 73 76 80 91 97 104 97 98 108 115 123 126 128 132 135 135 135 135 134 136 136 140 143 144 143 142 144 150 151 146 146 147 151 153 152 151 150 150 154 159 155 159 165 161 161 160 156 152 146 143 144 147 155 161 158 155 156 158 161 161 162 163 164 166 167 171 175 175 178 179 181 183 181 180 182 185
252 200 221 293 344 323 20 100 224 207 279 281 312 6 352 7 15 359 355 357 11 46 78 86 99 97 101 95 98 114 123 128 129 131 134 135 136 135 134 135 136 137 138 140 142 142 145 145 150 155 145 145 152 154 153 152 157 156 155 159 159 158 166 171 164 164 166 161 157 152 146 144 148 156 164 162 157 156 157 159 162 164 165 164 166 167 169 174 173 173 175 179 184 183 181 183 187
273 235 206 307 16 335 77 115 184 186 238 263 353 12 360 23 42 13 354 6 12 35 57 49 93 96 94 94 103 121 127 130 132 133 135 136 135 134 134 135 136 137 139 138 138 140 145 147 151 154 142 145 151 151 150 149 158 161 162 163 157 161 170 169 166 169 169 168 164 156 149 146 150 156 163 164 157 155 156 158 163 166 166 166 167 167 168 169 168 169 171 176 182 181 182 184 184
271 305 283 350 61 205 173 124 166 213 210 207 38 0 12 39 54 1 343 4 16 26 30 30 85 95 90 106 118 128 128 133 136 135 137 136 135 135 134 135 135 137 141 139 141 142 144 147 151 152 143 145 149 150 149 150 159 162 168 170 163 166 174 170 169 174 170 171 170 162 155 151 154 158 160 162 156 154 156 159 165 166 167 167 167 169 168 165 164 167 167 171 175 174 179 181 177
288 318 333 352 140 175 353 124 203 250 166 90 76 3 35 60 38 333 345 7 23 20 25 32 73 96 108 120 129 133 136 139 139 139 138 137 136 136 134 133 134 138 141 140 144 145 146 150 153 153 145 144 149 151 153 158 167 173 181 178 172 174 177 174 173 173 167 168 168 166 164 159 162 162 158 157 154 153 155 161 164 163 164 165 168 170 168 166 167 169 167 167 169 166 170 170 165
289 304 330 316 174 127 44 26 330 309 80 79 85 35 45 87 136 29 20 30 26 12 28 35 26 71 132 131 143 141 143 144 142 142 139 138 137 136 136 134 135 138 138 140 146 149 150 151 155 154 146 151 157 157 161 168 181 189 195 191 182 181 181 178 176 169 163 164 163 165 169 165 165 165 157 153 152 152 152 158 161 161 162 163 167 168 167 169 172 173 169 168 168 164 160 155 153
289 292 293 282 338 60 20 353 351 338 62 66 90 77 49 81 101 75 50 44 29 9 22 21 2 4 146 139 148 145 145 147 145 144 140 140 138 137 138 137 140 138 136 140 143 149 154 153 159 159 152 156 156 152 152 162 187 191 194 196 187 184 184 179 173 166 164 166 160 158 165 167 168 167 156 150 151 151 150 154 158 160 161 162 163 162 165 167 169 170 168 167 163 155 148 145 149
292 285 291 309 5 42 17 9 11 344 56 86 94 87 57 47 30 53 65 53 43 21 30 24 18 50 146 143 146 146 147 149 147 147 144 143 142 143 142 144 149 145 141 146 146 147 153 155 155 159 155 150 147 142 137 155 180 184 190 192 192 192 188 181 173 165 162 169 162 153 161 171 169 164 154 151 153 150 149 152 155 159 159 158 156 156 159 159 159 160 161 158 149 146 146 147 151
282 296 329 352 19 44 30 20 21 340 58 101 86 63 65 60 29 17 50 59 62 51 42 38 58 85 124 138 146 148 149 151 152 151 150 150 150 151 151 151 155 151 151 154 153 152 153 153 149 156 153 141 140 135 135 160 173 178 190 189 194 192 188 184 173 167 163 173 164 151 162 169 162 159 154 153 154 148 146 150 152 152 153 152 151 152 153 152 150 149 149 148 145 145 146 147 146
290 326 339 11 27 57 63 37 28 15 61 98 106 75 67 83 89 269 299 80 90 73 38 37 71 95 127 138 146 151 152 156 156 155 156 158 157 158 157 156 155 154 157 159 158 156 155 158 159 157 151 140 134 127 137 159 167 171 178 178 182 181 184 180 171 170 168 177 167 152 161 165 159 159 155 154 152 147 145 146 147 145 146 149 149 149 148 147 146 144 144 147 147 141 137 135 127
336 317 347 17 30 76 82 61 45 62 94 113 133 119 105 128 162 139 104 103 115 120 140 168 131 127 133 141 150 155 158 160 161 162 162 163 163 161 160 160 158 157 159 161 160 159 154 163 173 158 153 151 136 128 136 148 155 150 150 159 166 168 174 175 172 170 167 175 168 155 162 162 159 159 155 154 151 147 146 146 145 144 145 148 148 147 145 145 146 145 144 145 142 132 131 126 115
321 309 19 8 1 58 81 68 49 78 104 115 123 114 118 140 145 102 127 123 114 134 170 166 146 139 141 150 156 162 166 166 168 168 166 168 166 163 163 162 160 158 157 158 161 161 153 161 174 156 152 151 133 130 133 137 139 133 135 151 159 160 160 163 165 160 159 163 156 153 160 158 155 156 155 154 151 149 150 149 148 146 146 148 147 145 143 144 144 143 140 138 135 131 135 129 125
313 322 52 12 10 44 85 73 47 62 69 102 130 131 129 148 149 121 142 134 114 140 161 161 153 146 151 158 162 170 173 174 177 172 171 172 168 166 165 162 160 156 156 158 159 161 155 159 170 155 147 145 130 128 128 133 135 130 134 147 155 157 152 152 154 152 153 151 147 151 155 152 150 153 153 152 153 152 152 150 148 146 143 144 145 143 142 142 139 135 131 128 127 129 137 144 152
303 341 79 27 22 24 71 84 94 57 50 68 105 129 141 157 158 148 146 145 140 139 156 170 166 158 158 158 166 180 181 183 183 176 176 174 171 169 165 162 161 157 157 159 159 161 157 159 168 154 147 146 137 131 129 137 141 133 131 136 148 151 148 148 148 147 147 146 148 150 148 149 148 150 151 152 154 153 153 151 148 144 141 142 144 146 144 140 137 131 127 131 133 134 142 161 168
264 346 54 51 57 31 44 72 87 41 45 58 37 104 144 186 176 173 164 157 162 153 154 168 169 164 163 166 169 178 189 191 185 180 179 177 174 170 165 163 162 158 158 161 160 159 158 159 160 153 151 146 139 135 134 140 142 137 133 134 143 148 148 148 147 147 147 147 149 148 147 149 147 147 149 150 152 152 154 152 148 147 145 146 148 150 147 143 142 134 131 138 141 147 153 168 171
263 333 16 42 80 59 36 41 57 51 66 69 346 88 118 234 182 179 186 166 172 175 163 167 176 170 171 180 175 174 195 198 188 184 181 180 176 168 166 162 160 162 160 162 161 158 161 161 157 154 153 145 140 139 139 141 140 142 141 136 143 149 150 147 148 150 153 153 151 150 152 150 147 149 150 151 153 154 158 156 153 154 152 153 153 153 152 150 151 142 141 142 144 158 153 157 170
345 321 334 10 50 53 34 32 46 23 79 100 355 94 121 252 220 192 195 173 171 177 163 163 178 175 176 186 180 176 196 200 191 188 181 179 177 167 167 164 162 165 162 163 162 160 163 160 158 156 153 149 144 141 141 142 138 142 145 141 142 146 148 146 147 151 156 157 154 154 155 150 147 152 157 156 153 155 159 157 155 157 158 159 155 153 154 155 155 149 148 143 147 162 157 148 156
342 295 322 20 42 39 41 28 11 33 57 118 355 358 137 193 238 233 178 169 176 181 163 162 176 177 181 185 179 174 191 207 197 188 184 179 177 170 169 169 166 166 163 164 161 161 164 160 159 157 157 153 143 141 145 144 138 137 141 144 143 143 147 146 147 151 155 156 156 154 153 149 148 158 163 154 152 156 155 153 155 156 157 159 158 154 152 150 148 149 146 138 142 160 170 165 146
297 296 323 279 78 344 82 17 304 82 114 198 220 254 213 200 224 255 176 170 181 179 159 163 177 178 185 182 177 182 199 213 199 186 188 182 180 179 176 172 168 165 164 165 160 160 164 162 162 161 163 155 145 150 151 145 142 139 139 144 147 146 149 149 149 153 155 156 154 152 151 150 155 162 161 154 157 156 150 154 159 155 154 158 159 152 146 144 156 165 149 142 146 155 169 168 156
287 292 274 204 154 306 107 44 307 87 179 191 209 221 197 204 219 229 209 191 183 172 160 166 174 176 187 182 169 184 197 193 193 191 188 183 182 184 181 175 169 167 169 165 160 162 165 165 164 165 167 157 148 154 155 149 149 146 143 145 149 148 150 154 155 157 159 158 156 156 156 158 161 159 155 157 158 150 147 158 159 153 154 156 153 151 154 159 172 175 152 145 146 140 149 156 168
274 267 242 207 189 215 168 269 260 224 155 155 220 267 154 177 197 223 248 252 146 141 154 170 176 173 180 181 166 184 199 184 186 192 189 187 185 186 183 181 174 166 167 164 162 165 164 166 164 166 174 163 150 155 160 155 151 153 149 147 151 148 151 157 159 161 162 160 161 162 161 161 159 157 157 155 152 149 151 156 154 153 153 150 153 163 165 158 163 171 153 141 135 130 141 137 136
263 262 236 233 230 192 197 232 248 234 141 153 229 297 59 153 191 203 254 291 127 140 171 173 178 171 172 193 186 191 197 183 180 179 185 190 183 186 183 181 178 167 170 168 167 168 165 168 165 169 180 169 156 157 165 158 151 157 156 154 156 150 152 158 159 163 163 162 164 164 164 164 161 164 161 149 150 159 155 151 152 161 162 162 166 165 156 143 136 139 134 126 123 133 148 145 131
240 253 248 233 225 182 203 217 232 242 156 170 211 289 298 140 195 195 197 271 160 160 172 154 166 176 188 204 194 185 182 179 184 177 185 188 180 187 182 179 177 167 174 173 169 170 170 170 166 171 178 172 165 161 165 159 153 164 168 163 161 153 155 161 163 164 165 164 164 166 168 166 166 169 156 143 155 164 151 149 160 174 173 171 168 152 140 139 132 138 143 137 147 161 167 158 137
218 225 254 252 234 211 189 192 208 208 187 180 184 260 299 132 165 181 166 233 197 160 160 147 166 179 190 198 184 174 174 183 192 184 185 183 180 187 179 179 178 170 172 174 174 172 173 175 170 173 173 175 175 166 167 158 153 169 177 167 162 157 157 162 163 162 165 166 167 172 173 166 167 168 154 146 160 160 150 161 174 175 164 158 159 146 140 145 139 154 165 162 172 168 154 149 135
211 210 244 242 257 240 175 174 186 187 201 217 202 227 266 174 154 169 168 195 193 148 158 172 176 180 184 186 181 178 176 186 194 185 179 174 180 182 173 185 188 181 177 172 180 175 174 179 174 176 174 177 178 171 173 163 158 170 170 166 166 161 158 162 167 164 166 170 173 177 175 169 166 166 161 151 153 160 162 173 177 167 153 150 155 147 145 149 144 159 169 171 182 162 136 135 143
339 338 303 311 313 319 111 146 157 191 210 232 243 240 243 186 157 173 174 186 197 164 167 180 189 197 187 172 178 186 182 187 195 186 175 174 187 183 179 196 198 192 187 179 185 181 178 179 173 178 178 177 179 175 175 170 169 171 165 165 167 164 162 166 175 173 170 174 178 179 175 174 170 169 167 152 150 171 171 171 172 161 158 160 159 154 152 153 154 164 168 167 167 157 131 123 149
314 324 317 314 308 303 305 134 144 179 222 254 265 271 275 183 159 177 179 180 199 191 179 185 211 220 204 171 168 177 187 190 195 190 181 182 192 191 189 200 203 200 195 187 186 186 183 179 173 179 180 181 186 180 176 175 176 173 167 168 165 166 170 171 180 178 172 175 179 180 177 178 176 175 173 160 158 174 172 172 172 163 163 162 162 165 159 158 161 163 165 147 144 146 130 119 154
290 306 298 283 280 274 267 209 151 137 248 272 277 276 290 263 168 175 175 176 192 199 180 182 219 214 199 204 165 165 186 192 192 191 187 190 193 195 193 197 203 201 198 193 189 188 188 184 179 180 182 187 194 188 180 179 178 173 171 173 168 167 173 175 179 177 175 177 180 182 181 182 181 178 179 172 168 172 170 174 170 163 170 166 163 167 160 163 159 151 156 143 133 147 131 128 151
292 299 286 277 279 276 272 209 144 140 230 272 283 268 257 268 208 174 173 178 185 199 193 167 187 199 200 220 172 163 185 186 180 183 189 196 198 196 190 194 201 197 196 197 194 190 191 194 188 185 187 192 200 194 186 184 182 179 174 175 174 170 173 176 174 173 177 180 183 185 184 186 185 180 181 178 175 172 170 176 169 161 172 169 167 172 166 166 159 145 145 138 139 169 164 151 150
297 284 273 271 270 264 253 153 140 151 214 269 282 283 270 273 263 201 177 177 173 188 211 100 121 141 273 256 192 159 181 181 175 183 190 196 204 201 194 196 201 199 200 201 200 195 194 198 194 191 193 196 200 196 191 188 185 186 177 174 181 176 173 175 172 177 185 182 184 187 186 188 187 183 182 179 179 177 172 177 171 162 172 175 173 178 173 167 160 152 147 139 144 166 163 161 142
267 267 270 265 263 268 241 142 149 157 203 259 282 295 294 286 268 258 158 156 162 171 203 73 123 153 209 248 232 181 188 193 178 188 198 198 202 204 203 205 205 203 204 203 204 202 198 198 199 201 199 198 203 199 194 190 186 190 180 173 185 184 178 177 173 180 189 185 186 190 189 189 189 187 184 182 183 181 176 177 175 172 176 179 179 178 175 170 159 156 155 151 154 160 165 165 145
252 241 252 267 263 268 274 141 176 183 210 235 258 273 271 273 261 260 117 138 147 135 161 17 137 159 191 234 225 186 188 213 196 191 203 209 209 209 209 211 211 208 208 207 207 207 204 201 205 209 204 199 204 202 195 190 188 192 182 175 182 181 180 181 175 177 186 191 191 192 191 190 190 190 187 186 187 186 183 177 173 183 185 179 184 180 171 172 168 163 161 163 173 185 187 170 154
261 237 228 247 266 281 308 159 187 213 230 198 206 275 275 286 354 112 124 131 127 124 152 174 140 164 269 272 248 158 167 190 222 212 206 216 221 221 217 215 217 214 212 212 211 210 206 203 207 210 206 200 202 204 197 191 191 193 184 181 183 182 182 182 180 182 189 194 193 189 190 192 191 192 190 188 191 191 187 178 170 186 195 183 186 186 174 173 173 171 170 179 190 186 195 187 164
269 290 236 230 227 285 301 287 251 264 269 167 181 276 293 272 14 99 149 121 107 111 118 122 100 62 347 320 322 308 170 160 200 245 231 219 216 225 228 224 224 224 221 218 212 208 206 207 208 205 205 204 203 204 200 194 195 196 190 186 185 185 185 183 183 187 193 196 195 189 189 192 190 193 194 189 194 196 190 184 177 181 195 189 182 183 182 176 170 174 183 202 206 182 185 190 169
251 358 284 252 217 265 284 285 268 265 277 169 181 243 284 269 5 40 39 107 122 114 89 87 80 67 25 285 292 288 244 180 184 214 248 247 218 225 235 231 230 232 230 224 215 210 210 213 211 203 202 205 204 207 204 199 199 199 195 191 188 185 185 187 186 188 195 196 196 192 190 192 190 192 197 191 194 200 194 191 186 178 186 194 187 180 177 175 177 185 190 200 203 189 182 176 160
280 358 325 315 339 331 302 288 270 291 320 268 214 277 293 288 47 54 13 306 208 139 111 95 90 85 183 263 274 266 264 241 196 195 223 248 242 243 250 245 241 237 232 229 225 218 213 213 212 203 201 204 205 207 204 202 202 202 198 193 191 188 187 191 190 190 197 196 193 193 192 194 193 192 197 194 193 201 198 193 191 182 178 189 193 185 169 174 193 198 196 195 194 198 194 180 160
325 354 334 311 305 298 282 280 298 332 332 305 309 327 305 316 61 92 355 290 244 153 62 56 87 103 234 247 270 275 270 259 225 209 216 225 239 249 251 249 246 237 228 231 234 228 219 215 211 205 203 203 203 203 204 203 203 202 200 195 192 191 190 193 195 194 194 194 193 195 193 193 194 194 198 198 194 201 202 196 196 193 185 186 191 186 177 186 207 208 203 200 198 199 190 184 187
309 315 292 268 265 267 270 319 11 336 311 301 303 306 292 282 136 175 232 230 209 132 68 39 39 5 298 267 272 277 265 237 225 239 244 236 236 240 238 240 242 237 231 233 236 232 226 221 213 206 202 199 200 203 205 205 204 202 202 199 195 193 193 194 198 197 193 194 194 193 194 197 199 196 197 202 199 203 206 200 201 201 197 195 186 179 186 198 212 214 207 205 206 205 190 188 209
294 285 269 275 281 288 289 19 12 276 279 277 277 288 289 281 199 169 185 184 165 128 107 90 26 306 281 267 274 280 269 245 246 245 245 252 243 234 237 243 244 240 237 238 233 229 225 220 212 207 202 198 200 205 206 205 204 203 203 202 197 195 196 196 198 198 194 195 195 193 195 199 204 199 195 204 205 206 210 205 204 205 205 206 195 186 186 191 212 223 216 214 213 213 212 212 216
235 256 258 269 276 273 274 271 261 251 259 262 254 272 280 282 85 139 136 135 144 133 125 133 191 245 239 228 250 286 280 264 266 257 246 250 243 240 241 242 243 240 239 235 225 227 225 215 207 202 198 195 199 203 203 202 202 202 203 203 199 196 196 197 198 197 193 195 197 196 197 199 205 202 198 205 205 203 209 207 204 205 207 208 205 202 192 185 205 219 220 223 218 217 226 223 218
218 236 240 269 289 274 265 263 268 254 255 257 178 153 272 291 90 122 119 119 128 131 138 148 181 205 200 222 246 255 263 269 279 278 272 260 244 248 247 243 240 230 232 229 219 221 221 210 202 196 191 192 198 201 200 200 199 200 201 203 202 200 200 201 201 200 195 196 199 198 200 202 206 207 205 208 205 201 208 211 204 201 205 204 202 208 204 192 200 209 214 222 213 211 229 231 227
242 250 252 267 274 255 259 279 294 295 288 262 165 185 301 330 162 141 107 115 108 112 127 132 152 181 176 174 219 236 250 267 273 266 259 256 237 223 232 240 234 215 215 224 221 213 205 199 195 189 186 190 197 199 198 199 199 199 201 203 204 204 205 207 207 204 198 198 202 202 204 205 206 211 211 211 209 204 208 214 207 198 198 201 199 202 205 200 203 208 211 216 209 207 227 239 233
263 278 261 252 280 273 278 303 304 296 307 305 223 234 29 88 158 101 79 111 104 105 121 128 138 151 157 177 206 239 255 259 263 254 228 236 212 172 175 193 218 209 201 207 212 199 190 190 188 184 187 192 195 196 198 200 200 200 202 203 205 204 206 208 207 204 200 202 205 207 208 207 206 208 210 215 215 208 208 214 210 200 195 200 204 204 204 206 210 213 211 212 213 209 220 242 241
238 283 274 294 309 312 317 310 308 311 316 315 311 36 83 115 127 79 104 125 124 132 139 144 145 146 173 207 212 232 252 259 265 251 216 218 192 162 145 140 160 175 181 187 187 180 176 179 181 181 186 192 195 197 201 203 203 203 203 205 206 205 205 207 206 204 204 205 208 211 212 210 208 206 207 216 217 209 208 215 214 206 201 204 208 208 209 212 216 217 212 214 219 213 213 233 244
267 256 333 3 296 289 318 297 309 324 311 308 332 39 125 177 281 136 138 132 149 151 137 141 153 166 186 197 192 222 243 254 268 263 227 212 202 178 145 139 142 147 163 170 175 180 174 172 179 183 185 189 194 199 203 206 206 205 206 209 210 207 206 207 208 207 207 207 209 213 214 211 208 207 207 214 216 209 208 215 215 210 208 212 213 209 210 214 217 217 216 220 224 220 216 225 235
269 276 321 334 273 254 261 295 310 294 288 279 247 162 164 256 269 142 141 141 153 143 134 150 167 181 182 157 190 236 249 250 264 269 248 222 205 185 156 147 141 142 156 164 172 181 176 175 180 183 186 190 195 200 203 206 206 206 208 212 212 210 206 206 209 210 210 212 213 214 213 210 208 208 209 211 212 207 205 210 213 209 211 217 216 211 211 213 216 217 218 224 225 222 218 220 227
227 263 286 269 265 270 260 286 297 290 299 301 292 6 338 346 68 86 70 50 130 144 161 183 171 176 163 164 216 234 244 261 271 268 253 231 204 181 164 155 147 139 137 148 163 177 182 185 186 188 193 198 203 204 203 204 206 208 211 214 215 213 210 209 211 213 213 214 216 213 209 207 206 205 207 209 210 206 205 207 208 205 207 216 217 214 214 215 217 218 217 220 226 228 226 223 226
198 230 246 257 280 294 285 286 284 292 301 290 323 72 182 39 69 84 91 112 195 193 165 170 153 104 42 113 186 215 213 239 262 262 255 238 207 171 161 162 157 148 145 149 156 168 182 190 193 197 200 201 203 203 203 205 208 210 213 215 215 214 213 213 213 212 211 212 212 209 206 205 205 203 205 211 213 210 207 206 206 205 204 210 215 213 212 215 218 219 218 215 219 230 237 235 232
220 251 277 299 298 294 287 289 302 310 306 311 350 124 164 47 65 96 110 133 175 173 167 182 173 176 198 134 158 199 201 227 252 263 271 259 221 170 163 168 163 159 165 171 170 168 179 188 194 197 196 194 197 202 207 210 211 213 214 214 214 214 213 214 212 209 207 208 208 205 205 206 206 204 203 206 210 209 206 204 207 210 207 206 214 212 207 211 217 221 220 215 215 224 233 237 239